Time,TemperatureF,DewpointF,PressureIn,WindDirection,WindDirectionDegrees,WindSpeedMPH,WindSpeedGustMPH,Humidity,HourlyPrecipIn,Conditions,Clouds,dailyrainin,SolarRadiationWatts/m^2,SoftwareType,DateUTC
2013-04-24 00:02:00,27.0,24.0,-100.00,North,351,2.0,4.0,90,0.00,,,0.00,0.000000,,2013-04-24 06:02:00,
2013-04-24 00:11:00,27.0,24.0,-100.00,North,351,2.0,4.0,90,0.00,,,0.00,0.000000,,2013-04-24 06:11:00,
2013-04-24 00:42:00,26.0,25.0,-100.00,North,3,2.0,4.0,94,0.00,,,0.00,0.000000,,2013-04-24 06:42:00,
2013-04-24 00:52:00,26.0,25.0,-100.00,North,3,2.0,4.0,94,0.00,,,0.00,0.000000,,2013-04-24 06:52:00,
2013-04-24 01:11:00,26.0,25.0,-100.00,North,3,2.0,4.0,94,0.00,,,0.00,0.000000,,2013-04-24 07:11:00,
2013-04-24 01:42:00,24.0,23.0,-100.00,North,356,1.0,3.0,94,0.00,,,0.00,0.000000,,2013-04-24 07:42:00,
2013-04-24 01:52:00,24.0,23.0,-100.00,North,356,1.0,3.0,94,0.00,,,0.00,0.000000,,2013-04-24 07:52:00,
2013-04-24 02:01:00,24.0,23.0,-100.00,North,356,1.0,3.0,94,0.00,,,0.00,0.000000,,2013-04-24 08:01:00,
2013-04-24 02:11:00,24.0,23.0,-100.00,North,356,1.0,3.0,94,0.00,,,0.00,0.000000,,2013-04-24 08:11:00,
2013-04-24 02:42:00,24.0,23.0,-100.00,North,356,2.0,5.0,95,0.00,,,0.00,0.000000,,2013-04-24 08:42:00,
2013-04-24 02:52:00,24.0,23.0,-100.00,North,356,2.0,5.0,95,0.00,,,0.00,0.000000,,2013-04-24 08:52:00,
2013-04-24 03:01:00,24.0,23.0,-100.00,North,356,2.0,5.0,95,0.00,,,0.00,0.000000,,2013-04-24 09:01:00,
2013-04-24 03:11:00,24.0,23.0,-100.00,North,356,2.0,5.0,95,0.00,,,0.00,0.000000,,2013-04-24 09:11:00,
2013-04-24 03:42:00,22.0,21.0,-100.00,North,1,2.0,4.0,95,0.00,,,0.00,0.000000,,2013-04-24 09:42:00,
2013-04-24 03:53:00,22.0,21.0,-100.00,North,1,2.0,4.0,95,0.00,,,0.00,0.000000,,2013-04-24 09:53:00,
2013-04-24 04:02:00,22.0,21.0,-100.00,North,1,2.0,4.0,95,0.00,,,0.00,0.000000,,2013-04-24 10:02:00,
2013-04-24 04:12:00,22.0,21.0,-100.00,North,1,2.0,4.0,95,0.00,,,0.00,0.000000,,2013-04-24 10:12:00,
2013-04-24 04:42:00,22.0,21.0,-100.00,NNE,31,2.0,3.0,94,0.00,,,-99.99,0.000000,,2013-04-24 10:42:00,
2013-04-24 04:53:00,22.0,21.0,-100.00,NNE,31,2.0,3.0,94,0.00,,,-99.99,0.000000,,2013-04-24 10:53:00,
2013-04-24 05:02:00,22.0,21.0,-100.00,NNE,31,2.0,3.0,94,0.00,,,-99.99,0.000000,,2013-04-24 11:02:00,
2013-04-24 05:11:00,22.0,21.0,-100.00,NNE,31,2.0,3.0,94,0.00,,,-99.99,0.000000,,2013-04-24 11:11:00,
2013-04-24 05:42:00,20.0,18.0,-100.00,NNE,21,2.0,4.0,93,0.00,,,0.00,0.000000,,2013-04-24 11:42:00,
2013-04-24 05:52:00,20.0,18.0,-100.00,NNE,21,2.0,4.0,93,0.00,,,0.00,0.000000,,2013-04-24 11:52:00,
2013-04-24 06:11:00,20.0,18.0,-100.00,NNE,21,2.0,4.0,93,0.00,,,0.00,0.000000,,2013-04-24 12:11:00,
2013-04-24 06:42:00,19.0,17.0,-100.00,North,359,1.0,3.0,92,0.00,,,0.00,0.000000,,2013-04-24 12:42:00,
2013-04-24 06:52:00,19.0,17.0,-100.00,North,359,1.0,3.0,92,0.00,,,0.00,0.000000,,2013-04-24 12:52:00,
2013-04-24 07:01:00,19.0,17.0,-100.00,North,359,1.0,3.0,92,0.00,,,0.00,0.000000,,2013-04-24 13:01:00,
2013-04-24 07:12:00,19.0,17.0,-100.00,North,359,1.0,3.0,92,0.00,,,0.00,0.000000,,2013-04-24 13:12:00,
2013-04-24 08:42:00,27.0,26.0,-100.00,ENE,62,0.0,3.0,95,-99.99,,,0.00,105.000000,,2013-04-24 14:42:00,
2013-04-24 08:52:00,27.0,26.0,-100.00,ENE,62,0.0,3.0,95,-99.99,,,0.00,105.000000,,2013-04-24 14:52:00,
2013-04-24 09:01:00,27.0,26.0,-100.00,ENE,62,0.0,3.0,95,-99.99,,,0.00,105.000000,,2013-04-24 15:01:00,
2013-04-24 09:11:00,27.0,26.0,-100.00,ENE,62,0.0,3.0,95,-99.99,,,0.00,105.000000,,2013-04-24 15:11:00,
2013-04-24 09:43:00,39.0,33.0,-100.00,North,10,2.0,4.0,78,0.00,,,0.00,327.000000,,2013-04-24 15:43:00,
2013-04-24 10:12:00,39.0,33.0,-100.00,North,10,2.0,4.0,78,0.00,,,0.00,327.000000,,2013-04-24 16:12:00,
2013-04-24 10:42:00,43.0,28.0,-100.00,SE,144,4.0,6.0,55,0.00,,,0.00,526.000000,,2013-04-24 16:42:00,
2013-04-24 10:52:00,43.0,28.0,-100.00,SE,144,4.0,6.0,55,0.00,,,0.00,526.000000,,2013-04-24 16:52:00,
2013-04-24 11:02:00,43.0,28.0,-100.00,SE,144,4.0,6.0,55,0.00,,,0.00,526.000000,,2013-04-24 17:02:00,
2013-04-24 11:12:00,43.0,28.0,-100.00,SE,144,4.0,6.0,55,0.00,,,0.00,526.000000,,2013-04-24 17:12:00,
2013-04-24 11:42:00,48.0,27.0,-100.00,SW,223,5.0,10.0,43,0.00,,,0.00,717.000000,,2013-04-24 17:42:00,
2013-04-24 11:52:00,48.0,27.0,-100.00,SW,223,5.0,10.0,43,0.00,,,0.00,717.000000,,2013-04-24 17:52:00,
2013-04-24 12:02:00,48.0,27.0,-100.00,SW,223,5.0,10.0,43,0.00,,,0.00,717.000000,,2013-04-24 18:02:00,
2013-04-24 12:12:00,48.0,27.0,-100.00,SW,223,5.0,10.0,43,0.00,,,0.00,717.000000,,2013-04-24 18:12:00,
2013-04-24 12:43:00,51.0,25.0,-100.00,SW,228,5.0,14.0,36,0.00,,,0.00,805.000000,,2013-04-24 18:43:00,
2013-04-24 12:52:00,51.0,25.0,-100.00,SW,228,5.0,14.0,36,0.00,,,0.00,805.000000,,2013-04-24 18:52:00,
2013-04-24 13:01:00,51.0,25.0,-100.00,SW,228,5.0,14.0,36,0.00,,,0.00,805.000000,,2013-04-24 19:01:00,
2013-04-24 13:11:00,51.0,25.0,-100.00,SW,228,5.0,14.0,36,0.00,,,0.00,805.000000,,2013-04-24 19:11:00,
2013-04-24 13:42:00,53.0,23.0,-100.00,SSW,211,6.0,15.0,31,0.00,,,0.00,950.000000,,2013-04-24 19:42:00,
2013-04-24 13:52:00,53.0,23.0,-100.00,SSW,211,6.0,15.0,31,0.00,,,0.00,950.000000,,2013-04-24 19:52:00,
2013-04-24 14:01:00,53.0,23.0,-100.00,SSW,211,6.0,15.0,31,0.00,,,0.00,950.000000,,2013-04-24 20:01:00,
2013-04-24 14:11:00,53.0,23.0,-100.00,SSW,211,6.0,15.0,31,0.00,,,0.00,950.000000,,2013-04-24 20:11:00,
2013-04-24 14:42:00,54.0,23.0,-100.00,SSW,206,6.0,16.0,30,0.00,,,0.00,1020.000000,,2013-04-24 20:42:00,
2013-04-24 14:52:00,54.0,23.0,-100.00,SSW,206,6.0,16.0,30,0.00,,,0.00,1020.000000,,2013-04-24 20:52:00,
2013-04-24 15:02:00,54.0,23.0,-100.00,SSW,206,6.0,16.0,30,0.00,,,0.00,1020.000000,,2013-04-24 21:02:00,
2013-04-24 15:11:00,54.0,23.0,-100.00,SSW,206,6.0,16.0,30,0.00,,,0.00,1020.000000,,2013-04-24 21:11:00,
2013-04-24 15:42:00,54.0,22.0,-100.00,SSW,213,8.0,16.0,29,0.00,,,-99.99,971.000000,,2013-04-24 21:42:00,
2013-04-24 15:52:00,54.0,22.0,-100.00,SSW,213,8.0,16.0,29,0.00,,,-99.99,971.000000,,2013-04-24 21:52:00,
2013-04-24 16:03:00,54.0,22.0,-100.00,SSW,213,8.0,16.0,29,0.00,,,-99.99,971.000000,,2013-04-24 22:03:00,
2013-04-24 16:12:00,54.0,22.0,-100.00,SSW,213,8.0,16.0,29,0.00,,,-99.99,971.000000,,2013-04-24 22:12:00,
2013-04-24 16:42:00,56.0,23.0,-100.00,SW,226,8.0,16.0,28,0.00,,,0.00,893.000000,,2013-04-24 22:42:00,
2013-04-24 16:52:00,56.0,23.0,-100.00,SW,226,8.0,16.0,28,0.00,,,0.00,893.000000,,2013-04-24 22:52:00,
2013-04-24 17:02:00,56.0,23.0,-100.00,SW,226,8.0,16.0,28,0.00,,,0.00,893.000000,,2013-04-24 23:02:00,
2013-04-24 17:12:00,56.0,23.0,-100.00,SW,226,8.0,16.0,28,0.00,,,0.00,893.000000,,2013-04-24 23:12:00,
2013-04-24 17:42:00,53.0,23.0,-100.00,SW,214,6.0,22.0,31,0.00,,,0.00,454.000000,,2013-04-24 23:42:00,
2013-04-24 17:52:00,53.0,23.0,-100.00,SW,214,6.0,22.0,31,0.00,,,0.00,454.000000,,2013-04-24 23:52:00,
2013-04-24 18:01:00,53.0,23.0,-100.00,SW,214,6.0,22.0,31,0.00,,,0.00,454.000000,,2013-04-25 00:01:00,
2013-04-24 18:12:00,53.0,23.0,-100.00,SW,214,6.0,22.0,31,0.00,,,0.00,454.000000,,2013-04-25 00:12:00,
2013-04-24 18:42:00,52.0,22.0,-100.00,WSW,245,5.0,15.0,31,0.00,,,0.00,251.000000,,2013-04-25 00:42:00,
2013-04-24 18:52:00,52.0,22.0,-100.00,WSW,245,5.0,15.0,31,0.00,,,0.00,251.000000,,2013-04-25 00:52:00,
2013-04-24 19:01:00,52.0,22.0,-100.00,WSW,245,5.0,15.0,31,0.00,,,0.00,251.000000,,2013-04-25 01:01:00,
2013-04-24 19:11:00,52.0,22.0,-100.00,WSW,245,5.0,15.0,31,0.00,,,0.00,251.000000,,2013-04-25 01:11:00,
2013-04-24 19:42:00,50.0,22.0,-100.00,WSW,241,7.0,14.0,33,0.00,,,0.00,120.000000,,2013-04-25 01:42:00,
2013-04-24 19:52:00,50.0,22.0,-100.00,WSW,241,7.0,14.0,33,0.00,,,0.00,120.000000,,2013-04-25 01:52:00,
2013-04-24 20:01:00,50.0,22.0,-100.00,WSW,241,7.0,14.0,33,0.00,,,0.00,120.000000,,2013-04-25 02:01:00,
2013-04-24 20:11:00,50.0,22.0,-100.00,WSW,241,7.0,14.0,33,0.00,,,0.00,120.000000,,2013-04-25 02:11:00,
2013-04-24 21:02:00,48.0,24.0,-100.00,West,280,4.0,12.0,39,0.00,,,0.00,43.000000,,2013-04-25 03:02:00,
2013-04-24 21:11:00,48.0,24.0,-100.00,West,280,4.0,12.0,39,0.00,,,0.00,43.000000,,2013-04-25 03:11:00,
2013-04-24 21:43:00,47.0,24.0,-100.00,South,187,4.0,11.0,40,0.00,,,0.00,4.000000,,2013-04-25 03:43:00,
2013-04-24 21:52:00,47.0,24.0,-100.00,South,187,4.0,11.0,40,0.00,,,0.00,4.000000,,2013-04-25 03:52:00,
2013-04-24 22:03:00,47.0,24.0,-100.00,South,187,4.0,11.0,40,0.00,,,0.00,4.000000,,2013-04-25 04:03:00,
2013-04-24 22:12:00,47.0,24.0,-100.00,South,187,4.0,11.0,40,0.00,,,0.00,4.000000,,2013-04-25 04:12:00,
2013-04-24 22:43:00,46.0,24.0,-100.00,SSW,195,3.0,14.0,41,0.00,,,0.00,0.000000,,2013-04-25 04:43:00,
2013-04-24 22:52:00,46.0,24.0,-100.00,SSW,195,3.0,14.0,41,0.00,,,0.00,0.000000,,2013-04-25 04:52:00,
2013-04-24 23:02:00,46.0,24.0,-100.00,SSW,195,3.0,14.0,41,0.00,,,0.00,0.000000,,2013-04-25 05:02:00,
2013-04-24 23:12:00,46.0,24.0,-100.00,SSW,195,3.0,14.0,41,0.00,,,0.00,0.000000,,2013-04-25 05:12:00,
2013-04-24 23:42:00,44.0,24.0,-100.00,NNE,29,2.0,8.0,45,0.00,,,0.00,0.000000,,2013-04-25 05:42:00,
2013-04-24 23:52:00,44.0,24.0,-100.00,NNE,29,2.0,8.0,45,0.00,,,0.00,0.000000,,2013-04-25 05:52:00,